Location: Limerick
(52.6650°N, 8.6230°W)
Time: 03:33:03
(UTC+01:00)

ISS - Pass Details

Date: 29 March 2017
Orbit: 401 x 409 km, 51.6° (Epoch: 01 May)

Event Time Altitude Azimuth Distance (km) Brightness Sun altitude
Rises 20:27:12 0° 194° (SSW) 2,309 0.0 -4.3°
Reaches altitude 10° 20:30:28 10° 158° (SSE) 1,458 -1.3 -4.8°
Maximum altitude 20:31:33 11° 139° (SE) 1,385 -1.6 -4.9°
Drops below altitude 10° 20:32:38 10° 120° (ESE) 1,463 -1.6 -5.1°
Enters shadow 20:33:51 - 102° (ESE) 1,702 -1.4 -5.3°
